Total_Precipitation_Accumulation
0.46 0.39 0.37 0.44 0.43 0.37 0.34 0.38 0.44 0.47 0.48 0.57 0.71 0.80 0.88 1.04 1.24 1.29 1.36 1.50 1.50 1.51 1.64 1.76 1.82 1.79 1.74 1.84 2.04 2.44 2.33 1.97 1.75 1.76 1.63 1.47 1.41 1.48 1.46 1.61 1.69 1.61 1.53
0.37 0.32 0.31 0.34 0.36 0.35 0.33 0.33 0.41 0.52 0.57 0.61 0.74 0.89 1.11 1.23 1.37 1.52 1.51 1.53 1.58 1.62 1.71 1.92 2.04 2.01 2.02 2.12 2.18 2.46 2.63 2.36 2.14 2.14 2.30 2.06 1.84 1.50 1.25 1.34 1.48 1.55 1.57
0.32 0.25 0.27 0.29 0.31 0.32 0.39 0.39 0.48 0.68 0.87 0.95 1.16 1.43 1.68 1.75 1.69 1.69 1.75 1.73 1.75 1.81 1.78 1.90 2.10 2.11 2.11 2.18 2.37 2.69 3.01 2.94 2.64 2.42 2.61 2.35 2.08 1.98 1.47 1.20 1.28 1.43 1.54
0.39 0.30 0.29 0.32 0.29 0.34 0.46 0.63 0.82 1.11 1.34 1.45 1.62 1.84 1.94 1.97 1.90 1.91 1.92 1.91 1.81 1.73 1.72 1.84 2.04 2.20 2.33 2.45 2.52 2.53 2.92 3.20 2.99 2.81 2.47 2.17 2.04 2.19 2.01 1.55 1.29 1.34 1.40
0.43 0.43 0.42 0.47 0.49 0.59 0.80 1.13 1.38 1.59 1.71 1.75 1.80 1.99 2.13 2.28 2.29 2.19 2.05 1.95 1.91 1.84 1.73 1.77 1.83 1.89 2.00 2.17 2.31 2.39 2.64 2.85 3.00 2.96 2.74 2.50 2.34 1.92 1.91 1.97 1.73 1.47 1.27
0.47 0.57 0.70 0.84 0.92 1.01 1.21 1.44 1.59 1.74 1.71 1.67 1.70 1.82 2.00 2.16 2.18 2.22 2.19 2.06 1.93 1.82 1.71 1.64 1.72 1.74 1.75 1.91 2.04 2.15 2.43 2.64 2.77 2.82 2.71 2.61 2.59 2.29 2.02 1.86 1.83 1.69 1.47
0.56 0.76 0.93 1.09 1.19 1.29 1.40 1.44 1.42 1.49 1.52 1.48 1.48 1.55 1.63 1.66 1.70 1.82 1.75 1.63 1.52 1.46 1.44 1.36 1.40 1.52 1.57 1.76 1.85 1.80 1.88 2.07 2.29 2.47 2.51 2.51 2.43 2.37 2.30 2.14 1.95 1.72 1.42
0.83 0.95 1.06 1.18 1.22 1.34 1.40 1.35 1.32 1.31 1.26 1.20 1.21 1.21 1.25 1.32 1.32 1.33 1.28 1.20 1.16 1.14 1.10 1.10 1.11 1.16 1.23 1.45 1.67 1.68 1.68 1.74 1.84 1.94 2.21 2.36 2.32 2.34 2.13 2.03 2.07 1.85 1.56
1.08 1.26 1.26 1.17 1.10 1.15 1.22 1.21 1.16 1.10 1.03 0.97 0.99 1.00 1.06 1.10 1.07 1.02 0.96 0.94 0.87 0.87 0.85 0.89 1.00 1.06 1.04 1.13 1.27 1.46 1.53 1.60 1.68 1.69 1.86 2.01 2.11 2.08 1.90 1.92 2.03 1.93 1.64
1.16 1.44 1.55 1.43 1.17 1.00 1.03 1.01 0.99 1.02 1.01 0.97 0.99 0.96 0.87 0.80 0.79 0.80 0.73 0.71 0.76 0.78 0.78 0.77 0.81 0.89 0.90 0.98 1.10 1.16 1.27 1.36 1.52 1.69 1.82 1.84 1.89 1.94 1.82 1.80 1.94 1.93 1.73
1.38 1.50 1.52 1.39 1.22 0.96 0.90 0.90 0.87 0.89 0.96 0.90 0.93 0.93 0.81 0.68 0.63 0.59 0.54 0.55 0.58 0.62 0.63 0.66 0.75 0.78 0.80 0.81 0.82 0.86 0.94 1.02 1.13 1.20 1.33 1.53 1.72 1.80 1.78 1.82 1.89 1.94 1.82
1.07 1.06 1.15 1.15 1.08 0.96 0.89 0.96 0.99 0.99 0.92 0.84 0.83 0.82 0.75 0.66 0.65 0.58 0.50 0.52 0.58 0.60 0.60 0.65 0.69 0.69 0.75 0.78 0.76 0.76 0.80 0.92 1.00 1.01 1.03 1.13 1.37 1.52 1.65 1.72 1.74 1.82 1.80
0.81 0.73 0.83 0.98 0.92 0.85 0.88 0.97 1.10 1.11 1.02 0.89 0.82 0.81 0.77 0.75 0.77 0.66 0.57 0.56 0.65 0.76 0.76 0.76 0.78 0.74 0.77 0.77 0.77 0.80 0.83 0.86 0.91 0.93 0.93 1.01 1.12 1.28 1.36 1.45 1.56 1.64 1.75
0.64 0.59 0.55 0.62 0.64 0.64 0.65 0.77 1.02 1.23 1.19 1.08 0.96 0.89 0.84 0.83 0.81 0.69 0.62 0.58 0.62 0.66 0.67 0.74 0.81 0.88 0.93 0.90 0.85 0.85 0.85 0.80 0.81 0.88 0.95 0.96 0.99 1.15 1.36 1.46 1.53 1.56 1.67
0.42 0.39 0.36 0.37 0.39 0.44 0.51 0.60 0.90 1.10 1.11 1.11 0.98 0.88 0.80 0.72 0.68 0.66 0.66 0.61 0.56 0.55 0.55 0.62 0.71 0.81 0.91 0.95 0.94 0.82 0.72 0.72 0.76 0.76 0.77 0.84 0.93 1.00 1.18 1.31 1.54 1.56 1.67
0.33 0.33 0.31 0.28 0.26 0.27 0.33 0.41 0.59 0.76 0.86 0.91 0.87 0.75 0.72 0.65 0.57 0.61 0.68 0.67 0.55 0.50 0.51 0.54 0.52 0.55 0.60 0.79 0.80 0.69 0.57 0.60 0.68 0.74 0.76 0.75 0.78 0.81 0.88 0.92 1.17 1.36 1.48
0.34 0.36 0.35 0.32 0.30 0.27 0.27 0.29 0.35 0.45 0.54 0.60 0.62 0.52 0.52 0.63 0.66 0.67 0.66 0.58 0.48 0.49 0.48 0.43 0.38 0.40 0.45 0.53 0.53 0.60 0.58 0.58 0.61 0.68 0.76 0.81 0.79 0.86 0.95 0.92 0.97 1.07 1.14
0.36 0.33 0.31 0.29 0.27 0.25 0.25 0.26 0.26 0.29 0.33 0.32 0.31 0.28 0.37 0.51 0.54 0.50 0.47 0.42 0.41 0.45 0.51 0.43 0.40 0.44 0.43 0.48 0.55 0.58 0.56 0.66 0.72 0.72 0.71 0.81 0.87 0.94 1.11 1.09 1.15 1.09 1.00
0.17 0.15 0.13 0.13 0.12 0.13 0.14 0.14 0.11 0.13 0.14 0.13 0.14 0.17 0.19 0.23 0.24 0.22 0.24 0.30 0.37 0.41 0.37 0.40 0.54 0.54 0.53 0.63 0.58 0.50 0.56 0.68 0.76 0.71 0.72 0.82 0.91 1.09 1.21 1.22 1.23 1.13 1.06
0.05 0.07 0.09 0.09 0.09 0.10 0.12 0.11 0.10 0.10 0.10 0.12 0.13 0.14 0.15 0.18 0.18 0.19 0.20 0.23 0.26 0.32 0.34 0.38 0.52 0.57 0.62 0.63 0.49 0.47 0.56 0.69 0.77 0.76 0.74 0.94 0.95 1.04 1.10 1.15 1.27 1.29 1.17
0.06 0.07 0.08 0.08 0.09 0.09 0.11 0.10 0.09 0.11 0.15 0.16 0.14 0.13 0.14 0.16 0.22 0.26 0.25 0.24 0.23 0.25 0.29 0.33 0.39 0.40 0.40 0.41 0.41 0.43 0.49 0.59 0.71 0.74 0.74 0.71 0.85 0.87 0.97 1.09 1.15 1.38 1.28
0.06 0.09 0.09 0.09 0.11 0.12 0.11 0.12 0.10 0.13 0.17 0.16 0.15 0.15 0.16 0.19 0.22 0.30 0.32 0.28 0.26 0.24 0.25 0.30 0.37 0.39 0.33 0.30 0.32 0.36 0.42 0.54 0.58 0.59 0.66 0.65 0.74 0.78 0.85 0.87 1.06 1.25 1.21
0.06 0.08 0.10 0.12 0.12 0.13 0.14 0.14 0.15 0.16 0.17 0.17 0.17 0.18 0.19 0.21 0.22 0.25 0.27 0.29 0.28 0.28 0.29 0.31 0.35 0.36 0.36 0.35 0.37 0.40 0.45 0.48 0.44 0.42 0.58 0.65 0.73 0.70 0.69 0.81 1.01 1.07 1.09
0.06 0.06 0.08 0.11 0.15 0.17 0.18 0.19 0.20 0.22 0.21 0.20 0.20 0.19 0.21 0.24 0.26 0.28 0.29 0.32 0.34 0.34 0.34 0.35 0.38 0.41 0.41 0.38 0.36 0.38 0.41 0.42 0.41 0.42 0.57 0.70 0.76 0.73 0.70 0.77 0.90 0.96 1.09
0.09 0.07 0.07 0.09 0.13 0.17 0.19 0.21 0.22 0.23 0.24 0.24 0.24 0.24 0.24 0.26 0.29 0.33 0.35 0.33 0.34 0.36 0.34 0.36 0.39 0.39 0.36 0.36 0.38 0.39 0.41 0.43 0.46 0.55 0.71 0.83 0.84 0.85 0.81 0.83 0.93 0.91 0.89
0.08 0.09 0.09 0.09 0.10 0.12 0.13 0.16 0.17 0.19 0.21 0.25 0.26 0.24 0.27 0.31 0.32 0.33 0.32 0.33 0.34 0.36 0.35 0.33 0.36 0.37 0.35 0.36 0.39 0.43 0.46 0.45 0.55 0.73 0.89 1.00 1.07 1.07 1.02 0.98 0.96 0.88 0.86